Regional Weather Roundup
Issued by NWS

Home | Current Version | Previous Version | Graphics & Text | Print | Product List | Glossary On
Versions: 1 2 3 4 5 6 7 8 9 10 11 12 13 14 15 16 17 18 19 20 21 22 23 24 25 26 27 28 29 30 31 32 33 34 35 36 37 38 39 40 41 42 43 44 45 46 47 48 49 50
000
ASUS43 KBIS 280310
RWRND

NORTH DAKOTA REGIONAL WEATHER ROUNDUP
NATIONAL WEATHER SERVICE BISMARCK ND
1000 PM CDT TUE SEP 27 2016

NOTE: "FAIR" INDICATES FEW OR NO CLOUDS BELOW 12,000 FEET WITH NO
SIGNIFICANT WEATHER AND/OR OBSTRUCTIONS TO VISIBILITY.


NDZ001>003-009>011-017-280400-
NORTHWEST NORTH DAKOTA

CITY           SKY/WX    TMP DP  RH WIND       PRES   REMARKS
WILLISTON      CLEAR     56  49  77 CALM      29.96R
MINOT          CLEAR     52  42  69 CALM      29.99R
MINOT AFB      CLEAR     51  41  68 E3        29.98R
$$

NDZ018>021-031>035-040>046-280400-
SOUTHWEST NORTH DAKOTA

CITY           SKY/WX    TMP DP  RH WIND       PRES   REMARKS
BISMARCK       CLEAR     52  43  71 NE5       30.00R
DICKINSON      CLEAR     58  46  64 S7        29.99R
GARRISON         N/A     53  43  68 E5        29.99R
HETTINGER ARPT CLEAR     54  47  77 N3        30.03R
$$

NDZ004>008-012>016-024-026-027-054-280400-
NORTHEAST NORTH DAKOTA

CITY           SKY/WX    TMP DP  RH WIND       PRES   REMARKS
GRAND FORKS    CLOUDY    53  46  77 N9        30.00R
GRND FRKS AFB  CLOUDY    50  46  85 NE6       30.00R
DEVILS LAKE    CLEAR     46  42  86 CALM      30.02R
$$

NDZ022-023-025-028>030-036>039-047>053-280400-
SOUTHEAST NORTH DAKOTA

CITY           SKY/WX    TMP DP  RH WIND       PRES   REMARKS
FARGO          CLOUDY    54  44  69 N8        29.97R
JAMESTOWN      CLEAR     46  38  73 NE5       29.99R
$$




USA.gov is the U.S. government's official web portal to all federal, state and local government web resources and services.